Lakehurst, NJ

7:31 PM EDT on September 29, 2016 (GMT -0400)
Lakehurst Naes

Weather History for KNEL - September, 2012

Change the Weather History Date:

Saturday, September 22, 2012

  Actual Average Record
Temperature  
Mean Temperature 64 °F -  
Max Temperature 64 °F 70 °F 87 °F (2005)
Min Temperature 48 °F 54 °F 39 °F (1997)
Growing Degree Days 14 (Base 50)    
Moisture  
Dew Point 60 °F    
Average Humidity 82    
Maximum Humidity 100    
Minimum Humidity 60    
Precipitation  
Precipitation 0.00 in - - ()
Sea Level Pressure  
Sea Level Pressure 29.89 in    
Wind  
Wind Speed 5 mph (SSW)    
Max Wind Speed 14 mph    
Max Gust Speed 20 mph    
Visibility 10 miles    
Events Rain , Thunderstorm    
Averages and records for this station are not official NWS values.
T = Trace of Precipitation, MM = Missing Value Source: NWS Daily Summary

Daily Weather History Graph

Daily Weather History Graph

Search for Another Location

Airport or City:

Trip Planner

Search our weather history database for the weather conditions in past years. The results will help you decide how hot, cold, wet, or windy it might be!

Date:

Astronomy

Sep. 22, 2012 Rise Set
Actual Time 6:45 AM EDT 6:53 PM EDT
Civil Twilight 6:18 AM EDT 7:20 PM EDT
Nautical Twilight 5:46 AM EDT 7:52 PM EDT
Astronomical Twilight 5:14 AM EDT 8:24 PM EDT
Moon 2:01 PM EDT (9/22) 11:55 PM EDT (9/22)
Length of Visible Light 13h 02m
Length of Day
12h 08m
Waxing Crescent, 48% of the Moon is Illuminated
Sep 22
Waxing Crescent
Sep 22
First Quarter
Sep 29
Full
Oct 8
Last Quarter
Oct 15
New

Hourly Weather History & Observations

Time (EDT) Temp. Heat Index Dew Point Humidity Pressure Visibility Wind Dir Wind Speed Gust Speed Precip Events Conditions
12:00 AM 52.0 °F - 51.1 °F 97% 30.01 in 10.0 mi Calm Calm - N/A   Clear
1:00 AM 51.1 °F - 51.1 °F 100% 30.00 in 10.0 mi Calm Calm - N/A   Clear
3:00 AM 51.1 °F - 50.0 °F 96% 29.97 in 10.0 mi Calm Calm - N/A   Clear
4:00 AM 48.9 °F - 48.0 °F 97% 29.97 in 10.0 mi WNW 3.5 mph - N/A   Clear
5:00 AM 50.0 °F - 48.0 °F 93% 29.97 in 10.0 mi Calm Calm - N/A   Mostly Cloudy
6:00 AM 51.1 °F - 50.0 °F 96% 29.97 in 10.0 mi Calm Calm - N/A   Mostly Cloudy
7:00 AM 53.1 °F - 51.1 °F 93% 29.96 in 10.0 mi Calm Calm - N/A   Scattered Clouds
8:00 AM 59.0 °F - 57.0 °F 93% 29.96 in 10.0 mi Calm Calm - N/A   Scattered Clouds
9:00 AM 64.9 °F - 61.0 °F 87% 29.94 in 10.0 mi SSE 6.9 mph - N/A   Scattered Clouds
10:00 AM 73.0 °F - 63.0 °F 71% 29.92 in 10.0 mi South 12.7 mph - N/A   Clear
11:00 AM 75.9 °F - 63.0 °F 64% 29.90 in 10.0 mi South 12.7 mph 18.4 mph N/A   Partly Cloudy
12:00 PM 78.1 °F - 64.0 °F 62% 29.86 in 10.0 mi South 9.2 mph 16.1 mph N/A   Partly Cloudy
1:00 PM 80.1 °F 81.9 °F 64.9 °F 60% 29.84 in 10.0 mi South 13.8 mph 19.6 mph N/A   Mostly Cloudy
2:00 PM 81.0 °F 83.0 °F 66.0 °F 60% 29.81 in 10.0 mi South 11.5 mph - N/A   Scattered Clouds
3:00 PM 81.0 °F 83.0 °F 66.0 °F 60% 29.80 in 10.0 mi SSE 13.8 mph - N/A   Scattered Clouds
4:00 PM 81.0 °F 83.3 °F 66.9 °F 62% 29.79 in 10.0 mi South 10.4 mph - N/A   Partly Cloudy
5:00 PM 79.0 °F - 66.9 °F 66% 29.79 in 10.0 mi SSE 13.8 mph 19.6 mph N/A   Clear
6:00 PM 75.9 °F - 66.9 °F 74% 29.80 in 10.0 mi South 13.8 mph 19.6 mph N/A   Clear
7:00 PM 72.0 °F - 66.0 °F 81% 29.81 in 10.0 mi South 10.4 mph - N/A   Clear
8:00 PM 71.1 °F - 66.0 °F 84% 29.81 in 10.0 mi South 9.2 mph - N/A   Clear
9:00 PM 70.0 °F - 66.0 °F 87% 29.81 in 10.0 mi SSW 9.2 mph - N/A   Partly Cloudy
10:00 PM 66.9 °F - 64.0 °F 90% 29.86 in 10.0 mi West 8.1 mph - N/A Thunderstorm Thunderstorm
10:27 PM 66.2 °F - 62.6 °F 88% 29.86 in 3.0 mi West 5.8 mph - N/A Rain Rain
11:00 PM 64.9 °F - 64.0 °F 97% 29.87 in 5.0 mi West 4.6 mph - N/A Rain Light Rain